User: anonymous   Login
Location: Muenchen
(48.1800°N, 11.5800°E)
Time: 08:31:13
(UTC+01:00)
Language:

ISS - Orbit

View from above orbital plane
View from above orbital plane
View from above satellite
View from above satellite

Ground track
Ground track

The orbit data is extracted from the following two-line orbital elements,

1 25544U 98067A   15057.84246203  .00127627  00000-0  18511-2 0  9990
2 25544 051.6473 275.1525 0007649 055.1569 037.9350 15.54878014930868
Epoch (UTC): 26 February 2015 20:13:08
Eccentricity: 0.0007649
inclination: 51.6473°
perigee height: 397 km
apogee height: 408 km
right ascension of ascending node: 275.1525°
argument of perigee: 55.1569°
revolutions per day: 15.54878014
mean anomaly at epoch: 37.9350°
orbit number at epoch: 93086

The dashed part of the orbit path shows where the satellite is in the earth's shadow,  

DLR